COMPLETED DISPATCHED CALLS FOR SERVICE

Welcome to the Jacksonville Sheriff’s Office Completed Dispatched Calls for Service webpage. This page displays calls for service made to the Jacksonville Sheriff's Office that have recently been completed. The data on this page is refreshed automatically.

This information is not intended to be used as official crime data. This program does not provide information about all crimes, and excludes specific incidents such as sexual assaults and child abuse.

Disclaimer: The Jacksonville Sheriff's Office makes every effort to produce and publish current and accurate information. No warranties, expressed or implied, are provided for the data herein, its use, or its interpretation. The services provided are for informational purposes only and should not be relied on for any type of legal action.

Last refreshed 7/21 08:48:32

Incident # Dispatched Block Address Signal Call Description  
190721502753 7-21 08:31 7200 NORMANDY BLVD 1066 CANCEL
190721502750 7-21 08:30 3600 RING LN 1066 CANCEL
190721502741 7-21 08:20 DUVAL STATION RD AND STARRATT RD 91 TRAFFIC LIGHT/RR CROSSING MALFUNCTION
190721502742 7-21 08:17 1700 PERRY ST 27 MENTALLY ILL PERSON
190721502729 7-21 07:56 11600 JERRY ADAM DR 1066 CANCEL
190721502717 7-21 07:54 1200 GROTHE ST 64 NOISE COMPLAINT
190721502725 7-21 07:53 E 8TH ST AND SPEARING ST 1050 TRAFFIC STOP
190721502720 7-21 07:51 5600 COLLINS RD 1066 CANCEL
190721502712 7-21 07:49 4900 MUSTANG RD 63 DISPUTE
190721502719 7-21 07:45 10300 TAWA TRL 9 THEFT
190721502698 7-21 07:41 8200 N SUTTON PL 63 DISPUTE
190721502700 7-21 07:39 9400 SAN JOSE BLVD 63 DISPUTE
190721502706 7-21 07:34 HIGHWAY AVE AND S LANE AVE 13 SUSPICIOUS PERSON
190721502702 7-21 07:31 100 W 21ST ST 76 ASSIST OTHER AGENCY
190721502670 7-21 07:31 3400 SOUTEL DR 21C BURGLARY CONVEYANCE
190721502677 7-21 07:30 1500 W 26TH ST 14CT VANDALISM CONVEYANCE TELESERVE
190721502703 7-21 07:29 8600 SUSIE ST 19 ANIMAL INVESTIGATION
190721502693 7-21 07:26 7900 E BAYMEADOWS CIR 54 ILLEGALLY PARKED CAR
190721502675 7-21 07:25 7200 POWERS AVE 22 DOMESTIC
190721502697 7-21 07:25 LAKE SHORE BLVD AND PARK ST 1050 TRAFFIC STOP
190721502688 7-21 07:13 OLD ST AUGUSTINE RD AND LOSCO RD 1050 TRAFFIC STOP
190721502687 7-21 07:12 S EDGEWOOD AVE AND HIGHWAY AVE 91 TRAFFIC LIGHT/RR CROSSING MALFUNCTION
190721502684 7-21 07:09 7800 POINT MEADOWS D 1050 TRAFFIC STOP
190721502683 7-21 07:06 7800 POINT MEADOWS DR 26C CARDIAC AED
190721502676 7-21 06:54 10700 RUTGERS RD 26EB PERSON WITH EXTREME BEHAVIOR
190721502669 7-21 06:49 LORETTO RD AND EDGEMERE DR 16 ROAD OBSTRUCTION
190721502671 7-21 06:48 7100 NORMANDY BLVD 76 ASSIST OTHER AGENCY
190721502658 7-21 06:39 7900 ORIOLE ST 13 SUSPICIOUS PERSON
190721502660 7-21 06:31 2100 UNIVERSITY BLVD 1050 TRAFFIC STOP
190721502657 7-21 06:27 BEACH BLVD AND GROVE PARK BLVD 91 TRAFFIC LIGHT/RR CROSSING MALFUNCTION
190721502656 7-21 06:24 6600 GEORGIA JACK DR 28 DELIVER MESSAGE
190721502655 7-21 06:23 100 E MATHEWS BRG 96 ASSIST MOTORIST
190721502649 7-21 06:19 100 S HART BRG 16 ROAD OBSTRUCTION
190721502647 7-21 06:17 3300 POST ST 76 ASSIST OTHER AGENCY
190721502624 7-21 06:12 2000 MCQUADE ST 10 VEHICLE THEFT
190721502617 7-21 05:59 7900 103RD ST 63 DISPUTE
190721502641 7-21 05:54 7200 ELWOOD AVE 3 HIT AND RUN CRASH
190721502621 7-21 05:51 NIXON ST AND MCCOYS CREEK BLVD 63 DISPUTE
190721502632 7-21 05:48 300 ASPEN LEAF DR 1066 CANCEL
190721502626 7-21 05:43 MYRA ST AND JAMES ST 11 ABANDONED VEHICLE
190721502638 7-21 05:41 4200 W MONCRIEF RD 8 MISSING PERSON
190721502635 7-21 05:36 12400 N MAIN ST 96 ASSIST MOTORIST
190721502619 7-21 05:35 7200 POWERS AVE 2288 DOMESTIC DISPUTE WITH/ASSAULT
190721502625 7-21 05:34 11900 BEACH BLVD 13 SUSPICIOUS PERSON
190721502622 7-21 05:24 PHILIPS HWY AND NOCATEE PKWY 26EB PERSON WITH EXTREME BEHAVIOR
190721502611 7-21 05:01 STOCKTON ST AND W I10 EXPWY 1050 TRAFFIC STOP
190721502581 7-21 04:58 5700 N CEDAR FOREST DR 63 DISPUTE
190721502610 7-21 04:53 800 PRUDENTIAL DR 13 SUSPICIOUS PERSON
190721502609 7-21 04:50 600 W 8TH ST 4 AUTO CRASH
190721502576 7-21 04:50 4500 BEACH BLVD 2 63 DISPUTE IMPAIRED/INTOXICATED
190721502593 7-21 04:47 6200 GREEN PINE LN 3 HIT AND RUN CRASH
190721502608 7-21 04:46 BAYMEADOWS RD AND SOUTHSIDE BLVD 1050 TRAFFIC STOP
190721502599 7-21 04:36 8800 A C SKINNER PKWY 64 NOISE COMPLAINT
190721502601 7-21 04:35 8800 BEACH BLVD 96 ASSIST MOTORIST
190721502596 7-21 04:29 1700 S SAN PABLO RD 41 ARSON
190721502592 7-21 04:25 10500 MONACO DR 13 SUSPICIOUS PERSON
190721502591 7-21 04:24 W 7TH ST AND WHITNER ST 16 ROAD OBSTRUCTION
190721502585 7-21 04:20 BAYMEADOWS RD AND S I295 EXPWY 4 AUTO CRASH
190721502583 7-21 04:14 S MCDUFF AVE AND EDISON AVE 96 ASSIST MOTORIST
190721502554 7-21 04:12 2500 SPRING POND LN 8 MISSING PERSON
190721502536 7-21 04:12 8600 STAGHOUSE MILL CT 14C VANDALISM CONVEYANCE
190721502579 7-21 04:03 11800 BEACH BLVD 27 MENTALLY ILL PERSON
190721502575 7-21 04:03 3100 W CITATION CIR 1066 CANCEL
190721502577 7-21 03:59 500 W STATE ST 2288 DOMESTIC DISPUTE WITH/ASSAULT
190721502578 7-21 03:59 600 W 8TH ST 88 ASSAULT
190721502573 7-21 03:57 5900 TOWNSEND RD 2288 DOMESTIC DISPUTE WITH/ASSAULT
190721502565 7-21 03:55 1900 ALMEDA ST 2 22 DOMESTIC DISTURBANCE
190721502540 7-21 03:50 12400 E SWALLOWHAWK CT 88 ASSAULT
190721502574 7-21 03:50 500 BUSCH DR 96 ASSIST MOTORIST
190721502572 7-21 03:46 5900 NEW KINGS RD 13 SUSPICIOUS PERSON
190721502417 7-21 03:44 300 SILENT BROOK TRL 64 NOISE COMPLAINT
190721502569 7-21 03:44 E 23RD ST AND JONES ST 22 DOMESTIC
190721502564 7-21 03:43 3300 MABRY TER 13 SUSPICIOUS PERSON
190721502559 7-21 03:41 7100 BLANDING BLVD 96 ASSIST MOTORIST
190721502550 7-21 03:38 6900 103RD ST 2 63 DISPUTE IMPAIRED/INTOXICATED
190721502568 7-21 03:37 8800 A C SKINNER PKWY 64 NOISE COMPLAINT
190721502566 7-21 03:35 200 W 4TH ST 2288 DOMESTIC DISPUTE WITH/ASSAULT
190721502563 7-21 03:35 6500 RAMONA BLVD 7 DEAD PERSON
190721502567 7-21 03:34 S OLD KINGS RD AND POWERS AVE 13 SUSPICIOUS PERSON
190721502525 7-21 03:33 6300 N SPRINKLE DR 22 DOMESTIC
190721502557 7-21 03:30 BLANDING BLVD AND 103RD ST 13 SUSPICIOUS PERSON
190721502561 7-21 03:27 N KERNAN BLVD AND MCCORMICK RD 12 RECKLESS DRIVER
190721502560 7-21 03:26 N LAURA ST AND W ASHLEY ST 60 SUICIDE OR ATTEMPT
190721502555 7-21 03:25 1900 FOREST BLVD 33 DISCHARGING OF FIREARM
190721502549 7-21 03:20 12300 KERNAN FOREST BLVD 13 SUSPICIOUS PERSON
190721502545 7-21 03:15 5400 SAN JUAN AVE 68 CON GAME/FLIM FLAM
190721502553 7-21 03:13 8300 DIX ELLIS TRL 37 UNVERIFIED 911 CALL
190721502552 7-21 03:10 W BEAVER ST AND BARNETT ST 1050 TRAFFIC STOP
190721502539 7-21 03:07 HODGES BLVD AND ARABELLA DR 3 HIT AND RUN CRASH
190721502508 7-21 03:05 7000 COLLINS RD 1066 CANCEL
190721502551 7-21 03:05 200 S EDGEWOOD AVE 0 63 ARMED DISPUTE
190721502428 7-21 03:01 11800 ALDEN RD 64 NOISE COMPLAINT
190721502547 7-21 02:58 BULLS BAY HWY AND W BEAVER ST 13 SUSPICIOUS PERSON
190721502509 7-21 02:58 4400 BEACH BLVD 63 DISPUTE
190721502504 7-21 02:57 7700 PLANTATION BAY DR 22 DOMESTIC
190721502477 7-21 02:56 ATLANTIC BLVD AND CORTEZ RD 63 DISPUTE
190721502544 7-21 02:53 1900 EVERGREEN AVE 2288 DOMESTIC DISPUTE WITH/ASSAULT
190721502533 7-21 02:51 7000 BLANDING BLVD 13 SUSPICIOUS PERSON
190721502541 7-21 02:47 500 E BAY ST 2 IMPAIRED/INTOXICATED
190721502528 7-21 02:45 N ARLINGTON RD AND ARLINGTON XY SERVICE RD 3 HIT AND RUN CRASH
190721502538 7-21 02:43 3700 S UNIVERSITY BLVD 76 ASSIST OTHER AGENCY
190721502535 7-21 02:40 2200 W EDGEWOOD AVE 27 MENTALLY ILL PERSON
190721502534 7-21 02:39 4300 PHILIPS HWY 88J ASSAULT JUST OCCURRED
190721502532 7-21 02:35 S KERNAN BLVD AND BEACH BLVD 4 53 TRAFFIC CRASH PERSON INJURED
190721502530 7-21 02:34 1900 SPEARING ST 2288 DOMESTIC DISPUTE WITH/ASSAULT
190721502431 7-21 02:32 6200 CLARET DR 8 MISSING PERSON
190721502527 7-21 02:30 11200 HARTS RD 63 DISPUTE
190721502515 7-21 02:27 8500 TOWER FALLS DR 8 MISSING PERSON
190721502523 7-21 02:27 10900 BEACH BLVD 2288 DOMESTIC DISPUTE WITH/ASSAULT
190721502522 7-21 02:25 2200 W 1ST ST 2 63 DISPUTE IMPAIRED/INTOXICATED
190721502524 7-21 02:25 ATLANTIC BLVD AND DEBUTANTE DR 1050 TRAFFIC STOP
190721502521 7-21 02:20 GATEWAY/TOWNSEND 1050 TRAFFIC STOP
190721502497 7-21 02:17 9500 REGENCY SQUARE BLVD 10J VEHICLE THEFT JUST OCCURRED
190721502517 7-21 02:13 6000 MONCRIEF RD 76 ASSIST OTHER AGENCY
190721502450 7-21 02:13 3900 BLANDING BLVD 0 63 ARMED DISPUTE
190721502506 7-21 02:12 PICKWICK DR AND PICADILLY LN 64 NOISE COMPLAINT
190721502518 7-21 02:12 10400 BEACH BLVD 13 SUSPICIOUS PERSON
190721502503 7-21 02:10 8900 INDIA AVE 33 DISCHARGING OF FIREARM
190721502516 7-21 02:09 1200 SOARING FLIGHT WAY 60 SUICIDE OR ATTEMPT
190721502499 7-21 02:07 RIVERSIDE PARK PL AND PARK ST 4 AUTO CRASH
190721502449 7-21 02:07 6000 BEACH BLVD 60 SUICIDE OR ATTEMPT
190721502500 7-21 02:07 600 E 21ST ST 13 SUSPICIOUS PERSON
190721502490 7-21 02:06 4100 PHILIPS HWY 63 DISPUTE
190721502502 7-21 02:06 4400 TURNER AVE 64 NOISE COMPLAINT
190721502460 7-21 02:05 5900 LENOX AVE 21R BURGLARY RESIDENCE
190721502501 7-21 02:04 4900 TIGER LILY LN 21C BURGLARY CONVEYANCE
190721502507 7-21 02:03 9000 DAMES POINT RD 13 SUSPICIOUS PERSON
190721502511 7-21 02:03 BEACH/COUNTRY SIDE 1050 TRAFFIC STOP
190721502510 7-21 02:03 ARGYLE FOREST BLVD AND STAPLES MILL DR 1050 TRAFFIC STOP
190721502454 7-21 02:02 8300 DAMES POINT CROSSING BLVD 63 DISPUTE
190721502404 7-21 02:01 6900 S GEORGE WOOD LN 8 MISSING PERSON
190721502443 7-21 02:01 3700 EMERSON ST 3 HIT AND RUN CRASH
190721502505 7-21 02:00 SOUTHSIDE BLVD AND CARGAL ST 1050 TRAFFIC STOP
190721502395 7-21 01:59 YELLOW WATER RD AND YELLOW WATER LN 63 DISPUTE
190721502461 7-21 01:58 BLANDING BLVD AND SAN JUAN AVE 91 TRAFFIC LIGHT/RR CROSSING MALFUNCTION
190721502485 7-21 01:55 1000 PARK ST 55 HOLDING ONE
190721502483 7-21 01:55 1000 PARK ST 2 IMPAIRED/INTOXICATED
190721502475 7-21 01:52 7400 CINNAMON LAKES DR 33 DISCHARGING OF FIREARM
190721502496 7-21 01:52 1800 BALDWIN ST 10 VEHICLE THEFT
190721502441 7-21 01:51 6800 103RD ST 21R BURGLARY RESIDENCE
190721502495 7-21 01:50 7500 ARLINGTON EXPWY 9 THEFT
190721502492 7-21 01:49 MONUMENT RD AND TREDINICK PKWY 1 IMPAIRED/DRUNK DRIVER
190721502493 7-21 01:48 EDGE/IRI 1050 TRAFFIC STOP
190721502488 7-21 01:48 400 MONUMENT RD 13 SUSPICIOUS PERSON
190721502469 7-21 01:48 1200 KING ST 1066 CANCEL
190721502473 7-21 01:48 700 OAK ST 76 ASSIST OTHER AGENCY
190721502430 7-21 01:47 1600 KINGSWOOD RD 64 NOISE COMPLAINT
190721502491 7-21 01:47 4100 LORENZO CT 63 DISPUTE
190721502444 7-21 01:44 8100 SWIFT FOX TRL 64 NOISE COMPLAINT
190721502487 7-21 01:43 7900 NEW KINGS RD 63 DISPUTE
190721502486 7-21 01:43 13100 N MAIN ST 13 SUSPICIOUS PERSON
190721502482 7-21 01:42 9000 ATLANTIC BLVD 63 DISPUTE
190721502458 7-21 01:39 E ASHLEY ST AND N LIBERTY ST 16 ROAD OBSTRUCTION
190721502476 7-21 01:37 7200 MERRILL RD 4 53 TRAFFIC CRASH PERSON INJURED
190721502474 7-21 01:34 BEACH BLVD AND LUCENA LN 1050 TRAFFIC STOP
190721502439 7-21 01:34 1300 LACLEDE AVE 1066 CANCEL
190721502468 7-21 01:34 800 N EDGEWOOD AVE 1066 CANCEL
190721502471 7-21 01:32 X565 1050 TRAFFIC STOP
190721502470 7-21 01:32 N MYRTLE AVE AND STEELE ST 1050 TRAFFIC STOP
190721502465 7-21 01:31 5900 N PEARL ST 6388 DISPUTE WITH ASSAULT
190721502403 7-21 01:30 11000 CAMPUS HEIGHTS LN 22 DOMESTIC
190721502467 7-21 01:30 W 21ST ST AND N PEARL ST 1050 TRAFFIC STOP
190721502466 7-21 01:29 7800 103RD ST 5388 ASSAULT INVOLVING INJURY
190721502464 7-21 01:28 6000 POWERS AVE 88 ASSAULT
190721502442 7-21 01:27 2100 PAYNE AVE 21C BURGLARY CONVEYANCE
190721502446 7-21 01:26 5800 EDENFIELD RD 22 DOMESTIC
190721502451 7-21 01:25 2600 PADDOCK DR 90 FIREWORKS
190721502452 7-21 01:25 10400 PHILIPS HWY 76 ASSIST OTHER AGENCY
190721502455 7-21 01:24 4500 LANNIE RD 6 ESCAPEE
190721502448 7-21 01:23 5900 N PEARL ST 37 UNVERIFIED 911 CALL
190721502445 7-21 01:23 1900 RAYBEN DR 88P ASSAULT IN PROGRESS
190721502399 7-21 01:19 9800 BEACH BLVD 73 DRUG INVESTIGATION
190721502407 7-21 01:19 7700 PARADISE ISLAND BLVD 64 NOISE COMPLAINT
190721502437 7-21 01:19 7800 103RD ST 63 DISPUTE
190721502436 7-21 01:18 1700 N DAVIS ST 63 DISPUTE
190721502434 7-21 01:17 LEM TURNER RD AND PACE RD 12 RECKLESS DRIVER
190721502429 7-21 01:17 100 W UNION ST 63 DISPUTE
190721502432 7-21 01:17 3100 EMERSON ST 73 DRUG INVESTIGATION
190721502426 7-21 01:13 E 10TH ST AND BRIDIER ST 1050 TRAFFIC STOP
190721502425 7-21 01:12 W 1ST ST AND WOODSTOCK AVE 1050 TRAFFIC STOP
190721502379 7-21 01:11 1000 STOKES ST 2288 DOMESTIC DISPUTE WITH/ASSAULT
190721502421 7-21 01:09 2100 EMERSON ST 13 SUSPICIOUS PERSON
190720502331 7-21 01:08 NORMANDY BLVD AND BLAIR RD 14B VANDALISM BUSINESS
190721502337 7-21 01:07 1500 S LANE AVE 22 DOMESTIC
190721502420 7-21 01:05 J TURNER BUTLER BLVD AND BELFORT RD 76 ASSIST OTHER AGENCY
190721502370 7-21 01:05 2000 GAMEWELL RD 63 DISPUTE
190721502416 7-21 01:04 7400 N DEEPWOOD DR 22 DOMESTIC
190721502415 7-21 01:03 5500 BEACH BLVD 63 DISPUTE
190721502406 7-21 01:02 W I10 EXPWY AND CECIL COMMERCE CENTER PKWY 4 AUTO CRASH
190721502391 7-21 01:02 4500 WHEELER AVE 63 DISPUTE
190721502410 7-21 01:01 6600 S BARNES RD 73 DRUG INVESTIGATION
190721502413 7-21 01:00 4500 LANNIE RD 6 ESCAPEE
190721502397 7-21 01:00 1200 W 31ST ST 22 DOMESTIC
190721502409 7-21 00:58 17200 W BEAVER ST 63 DISPUTE
190721502400 7-21 00:57 TIMUQUANA RD AND ROOSEVELT BLVD 64 NOISE COMPLAINT
190721502408 7-21 00:56 ATLANTIC BLVD AND SUTTON LAKES BLVD 1050 TRAFFIC STOP
190721502405 7-21 00:55 1700 STARRATT RD 33 DISCHARGING OF FIREARM
190721502402 7-21 00:51 1500 DUNN AVE 96 ASSIST MOTORIST
190721502353 7-21 00:51 SWIFT FOX TRL AND KIT FOX PKWY 64 NOISE COMPLAINT
190721502401 7-21 00:50 MERRILL RD AND TOWNSEND BLVD 1050 TRAFFIC STOP
190721502380 7-21 00:50 1000 PARK ST 2 63 DISPUTE IMPAIRED/INTOXICATED
190721502389 7-21 00:50 S MCDUFF AVE AND ROOSEVELT BLVD 64 NOISE COMPLAINT
190721502398 7-21 00:50 4500 LANNIE RD 6 ESCAPEE
190721502396 7-21 00:49 300 W 11TH ST 63 DISPUTE
190721502392 7-21 00:46 1200 DUNN AVE 54 ILLEGALLY PARKED CAR
190721502372 7-21 00:45 1400 STIMSON ST 22 DOMESTIC
190721502387 7-21 00:45 13800 EGRETS NEST DR 64 NOISE COMPLAINT
190721502366 7-21 00:43 6300 LENCZYK DR 4 AUTO CRASH
190720502333 7-21 00:41 8200 OSTEEN ST 22 DOMESTIC
190721502385 7-21 00:41 S OLD KINGS RD AND POWERS AVE 13 SUSPICIOUS PERSON
190721502358 7-21 00:40 ARLINGTON EXPWY AND N ARLINGTON RD 3 HIT AND RUN CRASH
190721502382 7-21 00:38 COMMONWEALTH AVE AND PROSPECT ST 1050 TRAFFIC STOP
190721502345 7-21 00:37 11500 N WINGATE RD 2 IMPAIRED/INTOXICATED
190721502374 7-21 00:36 PHILIPS HWY AND ST AUGUSTINE RD 16 ROAD OBSTRUCTION
190721502375 7-21 00:35 300 E 8TH ST 76 ASSIST OTHER AGENCY
190721502373 7-21 00:35 300 E 8TH 1066 CANCEL
190721502364 7-21 00:34 RICKY DR AND SAN JOSE BLVD 33 DISCHARGING OF FIREARM
190721502371 7-21 00:32 OLD ST AUGUSTINE RD AND BARTRAM PARK BLVD 1050 TRAFFIC STOP
190721502359 7-21 00:31 11000 HARTS RD 4 AUTO CRASH
190720502200 7-21 00:28 6600 ALMOND AVE 22 DOMESTIC
190721502367 7-21 00:27 BEACH BLVD AND S ST JOHNS BLUFF RD 1050 TRAFFIC STOP
190721502365 7-21 00:25 WESTBROOK RD AND W BEAVER ST 1050 TRAFFIC STOP
190720502269 7-21 00:25 2900 W 2ND ST 21R BURGLARY RESIDENCE
190721502352 7-21 00:24 8500 W GATE PKWY 64 NOISE COMPLAINT
190721502362 7-21 00:23 10000 SKINNER LAKE DR 37 UNVERIFIED 911 CALL
190721502361 7-21 00:23 6800 MORSE OAKS DR 76 ASSIST OTHER AGENCY
190721502351 7-21 00:23 1600 W 45TH ST 76 ASSIST OTHER AGENCY
190720502301 7-21 00:22 1100 DUNN AVE 68 CON GAME/FLIM FLAM
190720502327 7-21 00:22 5900 FT CAROLINE RD 22 DOMESTIC
190721502360 7-21 00:22 9500 103RD ST 60 SUICIDE OR ATTEMPT
190721502349 7-21 00:20 N EDGEWOOD AVE AND COMMONWEALTH AVE 56 JUVENILE COMPLAINT
190721502357 7-21 00:20 BEACH/SS 1050 TRAFFIC STOP
190721502356 7-21 00:19 100 DUVAL STSTION RD 1 IMPAIRED/DRUNK DRIVER
190721502355 7-21 00:19 ATLANTIC BLVD AND ANNISTON RD 73 DRUG INVESTIGATION
190720502330 7-21 00:18 9400 103RD ST 63 DISPUTE
190721502354 7-21 00:18 S MCDUFF AVE AND THOMAS ST 1050 TRAFFIC STOP
190721502339 7-21 00:16 TOWN CENTER PKWY AND MIDTOWN PKWY 4 AUTO CRASH
190721502346 7-21 00:14 300 W 18TH ST 63 DISPUTE
190721502340 7-21 00:13 5600 EDENFIELD RD 64 NOISE COMPLAINT
190721502348 7-21 00:12 N MAIN ST AND W UNION ST 1066 CANCEL
190721502350 7-21 00:11 TROUT RIVER BLVD AND OLD KINGS RD 12 RECKLESS DRIVER
190720502290 7-21 00:11 5300 WESTCHASE CT 63 DISPUTE
190720502326 7-21 00:10 PARENTAL HOME RD AND DEAN RD 11 ABANDONED VEHICLE
190721502347 7-21 00:09 LOELL/NELSON 1050 TRAFFIC STOP
190721502344 7-21 00:08 CHA/STEWART 13 SUSPICIOUS PERSON
190721502343 7-21 00:08 3000 N MAIN ST 2 63 DISPUTE IMPAIRED/INTOXICATED
190721502342 7-21 00:07 I295 SB/NEW KINGS 1050 TRAFFIC STOP
190721502341 7-21 00:06 N I295 EXPWY AND MERRILL RD 4 AUTO CRASH
190720502332 7-21 00:06 8700 NEWTON RD 56 JUVENILE COMPLAINT
190721502338 7-21 00:05 N EDGEWOOD AVE AND NEW KINGS RD 12 RECKLESS DRIVER
190720502325 7-21 00:05 3300 W EVE DR 63 DISPUTE
190720502316 7-21 00:04 5200 ANCHOR AVE 63 DISPUTE
190720502312 7-21 00:04 10300 SEAL RD 63 DISPUTE
190720502320 7-21 00:03 8100 METTO RD 13 SUSPICIOUS PERSON
190720502252 7-21 00:02 7000 ARQUES RD 1066 CANCEL
190720502318 7-21 00:01 600 MONUMENT RD 64 NOISE COMPLAINT
190720502322 7-20 23:59 1500 RIVERPLACE BLVD 37 UNVERIFIED 911 CALL
190720502334 7-20 23:59 6000 ARLINGTON RD 60 SUICIDE OR ATTEMPT
190720502315 7-20 23:53 6700 SHINDLER DR 64 NOISE COMPLAINT
190720502313 7-20 23:51 12500 AGATITE RD 2 63 DISPUTE IMPAIRED/INTOXICATED
190720502267 7-20 23:50 1200 LABELLE ST 5388 ASSAULT INVOLVING INJURY
190720502319 7-20 23:49 1500 SWIFT ST 2 22 DOMESTIC DISTURBANCE
190720502321 7-20 23:47 S I95 EXPWY AND BAYMEADOWS RD 1050 TRAFFIC STOP
190720502314 7-20 23:43 400 MONUMENT RD 22 DOMESTIC
190720502309 7-20 23:42 2700 W UNIVERSITY BLVD 13 SUSPICIOUS PERSON
190720502308 7-20 23:41 13400 BEACH BLVD 9 THEFT
190720502304 7-20 23:40 12800 DUNES CT 64 NOISE COMPLAINT
190720502310 7-20 23:40 1100 W 25TH ST 63 DISPUTE
190720502306 7-20 23:39 BAYMEADOWS RD AND S OLD KINGS RD 29 WIRE DOWN
190720502303 7-20 23:39 2300 PHILIPS HWY 63 DISPUTE
190720502307 7-20 23:39 W BEAVER ST AND DEVOE ST 1050 TRAFFIC STOP
190720502253 7-20 23:38 4200 W MONCRIEF RD 63 DISPUTE
190720502286 7-20 23:38 7800 E BAYMEADOWS RD 22 DOMESTIC
190720502302 7-20 23:34 LENOX AVE AND S MCDUFF AVE 3 HIT AND RUN CRASH
190720502288 7-20 23:34 2000 FLESHER AVE 1066 CANCEL
190720502300 7-20 23:31 ROOSEVELT BLVD AND SAN JUAN AVE 1 IMPAIRED/DRUNK DRIVER
190720502293 7-20 23:31 5200 COLLINS RD 63 DISPUTE
190720502296 7-20 23:30 E 8TH ST AND N LIBERTY ST 10 VEHICLE THEFT
190720502295 7-20 23:30 8500 BAYMEADOWS RD 1050 TRAFFIC STOP
190720502292 7-20 23:30 11600 MARSH ELDER DR 13 SUSPICIOUS PERSON
190720502278 7-20 23:27 300 W ASHLEY ST 63 DISPUTE
190720502291 7-20 23:27 PHILIPS HWY AND BAYMEADOWS RD 1050 TRAFFIC STOP
190720502289 7-20 23:27 PHILIPS HWY AND W UNIVERSITY BLVD 1050 TRAFFIC STOP
190720502281 7-20 23:25 1200 BROOKWOOD FOREST BLVD 64 NOISE COMPLAINT
190720502271 7-20 23:25 1000 E 13TH ST 64 NOISE COMPLAINT
190720502255 7-20 23:24 3700 S UNIVERSITY BLVD 64 NOISE COMPLAINT
190720502280 7-20 23:23 S I295 EXPWY AND N I95 EXPWY 1050 TRAFFIC STOP
190720502216 7-20 23:23 9500 APPLECROSS RD 9 THEFT
190720502266 7-20 23:21 8500 COUNTRY CREEK BLVD 13 SUSPICIOUS PERSON
190720502274 7-20 23:20 S I95 EXPWY AND W I10 EXPWY 3 53 HIT AND RUN CRASH W/FIRE
190720502275 7-20 23:20 3400 BOULEVARD 2 22 DOMESTIC DISTURBANCE
190720502276 7-20 23:20 J TURNER BUTLER BLVD AND PHILIPS HWY 1050 TRAFFIC STOP
190720502191 7-20 23:19 6700 COLLINS RD 63 DISPUTE
190720502272 7-20 23:18 RIVERSIDE AVE AND FOREST ST 1 IMPAIRED/DRUNK DRIVER
190720502256 7-20 23:18 5900 TOWNSEND RD 64 NOISE COMPLAINT
190720502250 7-20 23:18 J TURNER BUTLER BLVD AND SOUTHSIDE BLVD 4 AUTO CRASH
190720502270 7-20 23:16 11200 PHILIPS HWY 1050 TRAFFIC STOP
190720502212 7-20 23:16 6100 YOUNGERMAN CIR 2 63 DISPUTE IMPAIRED/INTOXICATED
190720502268 7-20 23:15 6600 PHILIPS HWY 1050 TRAFFIC STOP
190720502265 7-20 23:14 100 W UNION ST 2 63 DISPUTE IMPAIRED/INTOXICATED
190720502264 7-20 23:13 W BEAVER ST AND PERMENTO AVE 1050 TRAFFIC STOP
190720502241 7-20 23:13 2200 KINGS AVE 63 DISPUTE
190720502263 7-20 23:12 BAY/MAIN 1050 TRAFFIC STOP
190720502261 7-20 23:12 2900 THOMAS ST 14 VANDALISM
190720502262 7-20 23:12 8700 SOUTHSIDE BLVD 1050 TRAFFIC STOP
190720502260 7-20 23:11 4000 SOUTHSIDE BLVD 38 TRAFFIC ASSIGNMENT
190720502259 7-20 23:11 11400 PHILIPS HWY 1050 TRAFFIC STOP
190720502257 7-20 23:10 OLD ST AUGUSTINE RD AND I295 RP 1050 TRAFFIC STOP
190720502244 7-20 23:08 8500 TOUCHTON RD 60 SUICIDE OR ATTEMPT
190720502240 7-20 23:08 1700 RUTLEDGE OAKS LN 0 63 ARMED DISPUTE
190720502242 7-20 23:07 6200 EASTWOOD LN 88 ASSAULT
190720502251 7-20 23:06 GATE PKWY AND SKINNER LAKE DR 1050 TRAFFIC STOP
190720502249 7-20 23:05 ARCO DR AND CRESTA WAY 1050 TRAFFIC STOP
190720502247 7-20 23:04 CLEVELAND/EDGEWOOD 1050 TRAFFIC STOP
190720502243 7-20 23:04 4500 LANNIE RD 6 ESCAPEE
190720502245 7-20 23:03 5800 SAN JUAN AVE 0 88J ARMED ASSAULT JUST OCCURRED
190720502246 7-20 23:03 S OLD KINGS RD AND RADCLIFF CT 1050 TRAFFIC STOP
190720502181 7-20 23:02 1000 LE BRUN DR 2288 DOMESTIC DISPUTE WITH/ASSAULT
190720502208 7-20 23:01 13200 CITY SQUARE DR 63 DISPUTE
190720502229 7-20 23:00 BEACH BLVD AND S KERNAN BLVD 16 ROAD OBSTRUCTION
190720502239 7-20 22:59 UNIVERSITY BLVD AND OLIVER ST 1050 TRAFFIC STOP
190720502237 7-20 22:59 1900 PHOENIX AVE 2 63 DISPUTE IMPAIRED/INTOXICATED
190720502188 7-20 22:59 4600 BIRKENHEAD RD 63 DISPUTE
190720502238 7-20 22:58 PHILIPS HWY AND ENERGY CENTER DR 38 TRAFFIC ASSIGNMENT
190720502233 7-20 22:58 BEACH BLVD AND HODGES BLVD 88J ASSAULT JUST OCCURRED
190720502221 7-20 22:57 13100 ATLANTIC BLVD 13 SUSPICIOUS PERSON
190720502217 7-20 22:57 4500 SOUTHSIDE BLVD 2 63 DISPUTE IMPAIRED/INTOXICATED
190720502167 7-20 22:56 6800 103RD ST 64 NOISE COMPLAINT
190720502234 7-20 22:56 3100 PHILIPS HWY 63 DISPUTE
190720502224 7-20 22:56 9100 ATLANTIC BLVD 27 MENTALLY ILL PERSON
190720502232 7-20 22:56 100 W 17TH ST 1066 CANCEL
190720502220 7-20 22:55 13500 RANCH RD 2288 DOMESTIC DISPUTE WITH/ASSAULT
190720502231 7-20 22:54 N SQUIRREL LN AND SWORDFISH DR 33 DISCHARGING OF FIREARM
190720502228 7-20 22:54 6100 COLLINS RD 76 ASSIST OTHER AGENCY
190720502219 7-20 22:53 W 21ST ST AND BOULEVARD 2 22 DOMESTIC DISTURBANCE
190720502227 7-20 22:53 3600 DANESE ST 10R VEHICLE THEFT RECOVERY
190720502226 7-20 22:53 9400 ATLANTIC BLVD 1050 TRAFFIC STOP
190720502225 7-20 22:52 1000 KINGS AVE 76 ASSIST OTHER AGENCY
190720502192 7-20 22:49 1200 LE BRUN DR 88J ASSAULT JUST OCCURRED
190720502215 7-20 22:47 100 DUVAL STATION RD 4 53 TRAFFIC CRASH PERSON INJURED
190720502214 7-20 22:47 10900 OLD ST AUGUSTINE RD 1050 TRAFFIC STOP
190720502213 7-20 22:46 MONCRIEF RD AND GEORGE R KERNS BLVD 1050 TRAFFIC STOP
190720502209 7-20 22:45 ELLINGTON AVE AND BOOKER ST 64 NOISE COMPLAINT
190720502149 7-20 22:43 4600 ST JOHNS AVE 63 DISPUTE
190720502194 7-20 22:41 10400 MIDTOWN PKWY 3 HIT AND RUN CRASH
190720502204 7-20 22:41 S I295 EXPWY AND BEACH BLVD 13 SUSPICIOUS PERSON
190720502183 7-20 22:39 13900 MT PLEASANT RD 13 SUSPICIOUS PERSON
190720502165 7-20 22:39 3200 KEGLER DR 63 DISPUTE
190720502207 7-20 22:38 1100 DUNN AVE 1050 TRAFFIC STOP
190720502206 7-20 22:38 W 33RD ST AND ALMEDA ST 1050 TRAFFIC STOP
190720502202 7-20 22:36 ARGYLE FOREST BLVD AND MERCHANTS WAY 4 53 TRAFFIC CRASH PERSON INJURED
190720502123 7-20 22:35 N EDGEWOOD AVE AND W BEAVER ST 4 AUTO CRASH
190720502199 7-20 22:34 7200 NORMANDY BLVD 3 53 HIT AND RUN CRASH W/FIRE
190720502129 7-20 22:32 7800 E COLLINS RIDGE BLVD 27 MENTALLY ILL PERSON
190720502177 7-20 22:31 100 GAIL ST 22 DOMESTIC
190720502198 7-20 22:31 10400 OLD ST AUGUSTINE RD 1050 TRAFFIC STOP
190720502196 7-20 22:30 1300 DUNN AVE 33 DISCHARGING OF FIREARM
190720502197 7-20 22:30 14400 PHILIPS HWY 1050 TRAFFIC STOP
190720502195 7-20 22:30 W 33RD ST AND SPRING GROVE AVE 13 SUSPICIOUS PERSON
190720502190 7-20 22:29 1000 BACALL RD 90 FIREWORKS
190720502193 7-20 22:29 7100 SS 1050 TRAFFIC STOP
190720502156 7-20 22:29 4200 WOODMERE ST 13 SUSPICIOUS PERSON
190720502175 7-20 22:28 400 W 22ND ST 76 ASSIST OTHER AGENCY
190720502187 7-20 22:28 700 S GRANADA BLVD 1066 CANCEL
190720502186 7-20 22:26 CENTURY ST AND EATON AVE 73 DRUG INVESTIGATION
190720502136 7-20 22:25 5200 NORWOOD AVE 9 THEFT
190720502182 7-20 22:25 1300 N MAIN ST 0 63 ARMED DISPUTE
190720502184 7-20 22:24 N SR9B EXPWY AND PHILIPS HWY 1050 TRAFFIC STOP
190720502150 7-20 22:24 6300 KELLOW DR 33 DISCHARGING OF FIREARM
190720502180 7-20 22:23 2200 MAYPORT RD 57 PERSON CALLING FOR HELP
190720502166 7-20 22:23 5400 TIMUQUANA RD 22 DOMESTIC
190720502158 7-20 22:22 1000 SCRIVEN ST 0 22 DOMESTIC DISTURBANCE W/WEAPON
190720502179 7-20 22:22 CLE/HOMER 1050 TRAFFIC STOP
190720502178 7-20 22:22 2800 UNIVERSITY BLVD 1066 CANCEL
190720502174 7-20 22:22 2900 RHONDA RD 2288 DOMESTIC DISPUTE WITH/ASSAULT
190720502127 7-20 22:21 9400 HARRIER CT 64 NOISE COMPLAINT
190720502144 7-20 22:20 1300 W 5TH ST 80 PROSTITUTION (ONLY)
190720502026 7-20 22:20 7800 SUMMER STAR CT 63 DISPUTE
190720502132 7-20 22:20 13700 W FISH EAGLE DR 22 DOMESTIC
190720502172 7-20 22:19 8600 E BAYMEADOWS RD 76 ASSIST OTHER AGENCY
190720502047 7-20 22:18 11500 HALL BLVD 63 DISPUTE
190720502169 7-20 22:18 13100 YELLOW BLUFF RD 13 SUSPICIOUS PERSON
190720502157 7-20 22:16 LOCKHART DR AND CLEVELAND RD 90 FIREWORKS
190720502162 7-20 22:16 3600 RAINES AVE 90 FIREWORKS
190720502164 7-20 22:16 1000 GIRVIN RD 1 IMPAIRED/DRUNK DRIVER
190720502163 7-20 22:15 10600 LEM TURNER RD 13 SUSPICIOUS PERSON
190720502161 7-20 22:15 7300 SOUTHSIDE BLVD 1050 TRAFFIC STOP
190720502159 7-20 22:14 W EDGEWOOD AVE AND LEM TURNER RD 1050 TRAFFIC STOP
190720502019 7-20 22:14 3600 JAMMES RD 21C BURGLARY CONVEYANCE
190720502155 7-20 22:13 8500 TOUCHTON RD 76 ASSIST OTHER AGENCY
190720502153 7-20 22:11 5900 NORMANDY BLVD 60 SUICIDE OR ATTEMPT
190720502087 7-20 22:10 400 E 44TH ST 22 DOMESTIC
190720502113 7-20 22:09 5700 LENOX AVE 22 DOMESTIC
190720502079 7-20 22:07 6100 YOUNGERMAN CIR 63 DISPUTE
190720502147 7-20 22:07 S SR9B EXPWY AND S I95 EXPWY 38 TRAFFIC ASSIGNMENT
190720502139 7-20 22:06 3900 CHEROKEE VILLA LN 64 NOISE COMPLAINT
190720502135 7-20 22:04 11500 HARTS RD 22 DOMESTIC
190720502107 7-20 22:03 7400 ORIOLE ST 13 SUSPICIOUS PERSON
190720502138 7-20 22:02 W I10 EXPWY AND S MCDUFF AVE 1050 TRAFFIC STOP
190720502121 7-20 22:02 MARGARET ST AND RIVERSIDE AVE 4 AUTO CRASH
190720502134 7-20 22:01 WONDERWOOD/A1A 1050 TRAFFIC STOP
190720502130 7-20 22:01 7000 COMMONWEALTH AVE 63 DISPUTE
190720502133 7-20 22:01 7400 BLANDING BLVD 1050 TRAFFIC STOP
190720502131 7-20 22:01 3800 S SAN PABLO RD 60 SUICIDE OR ATTEMPT
190720502106 7-20 21:58 9500 REGENCY SQUARE BLVD 63 DISPUTE
190720502103 7-20 21:58 9500 REGENCY SQUARE BLVD 2 63 DISPUTE IMPAIRED/INTOXICATED
190720502126 7-20 21:57 6500 EVELYN DR 8 MISSING PERSON
190720502125 7-20 21:56 2300 W BEAVER ST 4 AUTO CRASH
190720502111 7-20 21:55 4200 LOCKHART DR 90 FIREWORKS
190720502124 7-20 21:55 SOUTHSIDE BLVD AND BELLE RIVE BLVD 4 AUTO CRASH
190720502115 7-20 21:55 ROTH DR AND CLEVELAND RD 33 DISCHARGING OF FIREARM
190720502091 7-20 21:53 S OLD MIDDLEBURG RD AND SANDLER RD 13 SUSPICIOUS PERSON
190720502122 7-20 21:53 ATLANTIC BLVD AND N BROOKVIEW DR 63 DISPUTE
190720502120 7-20 21:53 600 STOCKTON ST 13 SUSPICIOUS PERSON
190720502097 7-20 21:53 14900 MAX LEGGETT PKWY 9J THEFT JUST OCCURRED
190720502118 7-20 21:52 N I95 EXPWY AND LEM TURNER RD 96 ASSIST MOTORIST
190720502059 7-20 21:52 5300 TIMUQUANA RD 14C VANDALISM CONVEYANCE
190720502108 7-20 21:51 HARTLEY RD AND SAN JOSE BLVD 4 AUTO CRASH
190720502085 7-20 21:50 MONCRIEF RD AND W 33RD ST 63 DISPUTE
190720502096 7-20 21:49 7200 POWERS AVE 22 DOMESTIC
190720502065 7-20 21:49 6000 WESTVIEW AVE 2 22 DOMESTIC DISTURBANCE
190720502088 7-20 21:48 9900 BEACH BLVD 4 AUTO CRASH
190720502101 7-20 21:47 2700 N MAIN ST 3 HIT AND RUN CRASH
190720502104 7-20 21:47 N I295 EXPWY AND 103RD ST 1050 TRAFFIC STOP
190720502102 7-20 21:47 BEACH BLVD AND FOREST BLVD 1050 TRAFFIC STOP
190720501987 7-20 21:47 5700 TIMUQUANA RD 9 THEFT
190720502100 7-20 21:46 1100 DUNN 1050 TRAFFIC STOP
190720502098 7-20 21:45 3200 WARRINGTON ST 22 DOMESTIC
190720502099 7-20 21:45 103RD ST AND FIRESTONE RD 1050 TRAFFIC STOP
190720502090 7-20 21:44 6700 RAMONA BLVD 22 DOMESTIC
190720502095 7-20 21:44 HODGES BLVD AND BENTWATER DR 1050 TRAFFIC STOP
190720502093 7-20 21:43 500 WONDERWOOD DR 50 FOUND/ABANDONED PROPERTY
190720502089 7-20 21:41 ARLINGTON EXPWY AND N ARLINGTON RD 2 IMPAIRED/INTOXICATED
190720502072 7-20 21:40 1200 KINGS RD 63 DISPUTE
190720502038 7-20 21:36 4100 N OLD MIDDLEBURG RD 9J THEFT JUST OCCURRED
190720502078 7-20 21:36 J TURNER BUTLER BLVD AND GATE PKWY 16 ROAD OBSTRUCTION
190720502080 7-20 21:35 10800 HARTS RD 63 DISPUTE
190720502082 7-20 21:34 300 E 46TH ST 90 FIREWORKS
190720502070 7-20 21:34 LYNNWOOD AVE AND WESCONNETT BLVD 13 SUSPICIOUS PERSON
190720502076 7-20 21:32 1200 W 21ST ST 76 ASSIST OTHER AGENCY
190720502056 7-20 21:32 S I95 EXPWY AND J TURNER BUTLER BLVD 3 HIT AND RUN CRASH
190720501978 7-20 21:32 500 WONDERWOOD DR 3 HIT AND RUN CRASH
190720502077 7-20 21:32 MY/KERNAN 1050 TRAFFIC STOP
190720502074 7-20 21:31 ARGYLE FOREST BLVD AND STAPLES MILL DR 4 53 TRAFFIC CRASH PERSON INJURED
190720502055 7-20 21:29 10800 HARTS RD 63 DISPUTE
190720502071 7-20 21:28 BAYMEADOWS RD AND OLD BAYMEADOWS RD 1050 TRAFFIC STOP
190720502069 7-20 21:28 3500 UNIVERSITY BLVD 4 53 TRAFFIC CRASH PERSON INJURED
190720502067 7-20 21:26 S ST JOHNS BLUFF RD AND BEACH BLVD 1050 TRAFFIC STOP
190720502027 7-20 21:26 4500 SAPPHO AVE 3 HIT AND RUN CRASH
190720502064 7-20 21:26 7000 COMMONWEALTH AVE 63 DISPUTE
190720501983 7-20 21:25 10100 E VINEYARD LAKE RD 22 DOMESTIC
190720502061 7-20 21:24 W U S 90 HWY AND S US 301 HWY 29 WIRE DOWN
190720502054 7-20 21:24 2500 JAMMES RD 63 DISPUTE
190720502033 7-20 21:24 7000 N PRESTWICK CIR 90 FIREWORKS
190720502060 7-20 21:24 6600 CHESTER PARK CIR 64 NOISE COMPLAINT
190720502057 7-20 21:23 3900 W ALHAMBRA DR 13 SUSPICIOUS PERSON
190720502041 7-20 21:22 1900 ATLANTIC BLVD 63 DISPUTE
190720502051 7-20 21:21 SANDLER RD AND S OLD MIDDLEBURG RD 33 DISCHARGING OF FIREARM
190720502036 7-20 21:21 4300 S UNIVERSITY BLVD 16 ROAD OBSTRUCTION
190720502058 7-20 21:21 800 A PHILIP RANDOLPH BLVD 61 FIGHT
190720502043 7-20 21:20 MONCRIEF RD AND W 36TH ST 4 AUTO CRASH
190720502052 7-20 21:19 10900 TAURINA RIDGE DR 1066 CANCEL
190720502046 7-20 21:18 LEM TURNER RD AND DUNN AVE 91 TRAFFIC LIGHT/RR CROSSING MALFUNCTION
190720502050 7-20 21:17 600 W 8TH ST 63 DISPUTE
190720502013 7-20 21:17 8200 W PRINCETON SQUARE BLVD 6388 DISPUTE WITH ASSAULT
190720502045 7-20 21:17 N I295 EXPWY AND MONUMENT RD 4 53 TRAFFIC CRASH PERSON INJURED
190720502044 7-20 21:17 3600 N MAIN ST 10 VEHICLE THEFT
190720502037 7-20 21:15 12200 W SAGO AVE 61 FIGHT
190720501979 7-20 21:13 5600 ELLIS TRACE DR 22 DOMESTIC
190720502035 7-20 21:13 2600 KAYLOR LN 60 SUICIDE OR ATTEMPT
190720502018 7-20 21:13 5800 COMMONWEALTH AVE 23I88 ROBBERY INDIVIDUAL W/ASSAULT
190720502032 7-20 21:13 BISCAYNE BLVD AND S RAVEN DR 13 SUSPICIOUS PERSON
190720502014 7-20 21:12 2100 KINGS RD 63 DISPUTE
190720502031 7-20 21:09 1100 W BEAVER ST 91 TRAFFIC LIGHT/RR CROSSING MALFUNCTION
190720502030 7-20 21:09 S ST JOHNS BLUFF RD AND LOST PINE DR 1050 TRAFFIC STOP
190720501993 7-20 21:08 1500 S LANE AVE 22 DOMESTIC
190720502029 7-20 21:08 4500 MONCRIEF RD 76 ASSIST OTHER AGENCY
190720502024 7-20 21:08 6400 SAN JUAN AVE 5388 ASSAULT INVOLVING INJURY
190720502025 7-20 21:06 400 W 22ND ST 76 ASSIST OTHER AGENCY
190720501989 7-20 21:05 100 SHIRCLIFF WAY 7 DEAD PERSON
190720502009 7-20 21:05 3100 N ARMSDALE RD 3 HIT AND RUN CRASH
190720502022 7-20 21:04 6100 COLLINS RD 5388 ASSAULT INVOLVING INJURY
190720502015 7-20 21:03 7500 LA FONTAINE DR 1066 CANCEL
190720502016 7-20 21:01 5600 COLLINS RD 76 ASSIST OTHER AGENCY
190720502005 7-20 20:58 11000 OLD ST AUGUSTINE RD 19 ANIMAL INVESTIGATION
190720502008 7-20 20:57 I10 EXPWY 4 AUTO CRASH
190720502007 7-20 20:55 E DUVAL ST AND A PHILIP RANDOLPH BLVD 4 AUTO CRASH
190720501966 7-20 20:55 8100 DANDY AVE 63 DISPUTE
190720502003 7-20 20:54 500 E BAY ST 50 FOUND/ABANDONED PROPERTY
190720501997 7-20 20:53 14300 VAN ZILE AVE 6388 DISPUTE WITH ASSAULT
190720501995 7-20 20:52 1700 W 2ND ST 22 DOMESTIC
190720502000 7-20 20:51 ARBLE DR AND MILL CREEK RD 27 MENTALLY ILL PERSON
190720501944 7-20 20:47 BEACH BLVD AND S SAN PABLO RD 61 FIGHT
190720501991 7-20 20:47 6700 N GRACE CIR 1066 CANCEL
190720501981 7-20 20:47 800 DUNN AVE 63 DISPUTE
190720501986 7-20 20:42 AUBURN RD AND W UNIVERSITY BLVD 1050 TRAFFIC STOP
190720501985 7-20 20:42 N PEARL ST AND W 22ND ST 26C CARDIAC AED
190720501910 7-20 20:39 500 E 56TH ST 63 DISPUTE
190720501973 7-20 20:39 W 13TH ST AND FAIRFAX ST 3 HIT AND RUN CRASH
190720501975 7-20 20:38 6700 N MAIN ST 27 MENTALLY ILL PERSON
190720501920 7-20 20:38 400 TAHITIAN TER 13 SUSPICIOUS PERSON
190720501969 7-20 20:37 S I95 EXPWY AND EMERSON ST 1066 CANCEL
190720501967 7-20 20:36 2300 ANNISTON RD 33 DISCHARGING OF FIREARM
190720501964 7-20 20:35 6100 OLD KINGS RD 16 ROAD OBSTRUCTION
190720501949 7-20 20:34 TROUT RIVER BLVD AND NEW KINGS RD 91 TRAFFIC LIGHT/RR CROSSING MALFUNCTION
190720501908 7-20 20:33 9000 5TH AVE 22 DOMESTIC
190720501963 7-20 20:33 11000 HARTS RD 63 DISPUTE
190720501957 7-20 20:32 2500 W 20TH ST 63 DISPUTE
190720501962 7-20 20:32 MONCRIEF RD AND N MYRTLE AVE 4 AUTO CRASH
190720501813 7-20 20:31 10000 N GATE PKWY 63 DISPUTE
190720501959 7-20 20:30 6000 WILSON BLVD 10R VEHICLE THEFT RECOVERY
190720501958 7-20 20:30 12600 N MAIN ST 1050 TRAFFIC STOP
190720501952 7-20 20:28 MILL CREEK LN AND MILL CREEK RD 1050 TRAFFIC STOP
190720501937 7-20 20:28 S I95 EXPWY AND GOLFAIR BLVD 16 ROAD OBSTRUCTION
190720501919 7-20 20:28 ST AUGUSTINE RD AND S OLD KINGS RD 4 AUTO CRASH
190720501947 7-20 20:27 6100 COLLINS RD 76 ASSIST OTHER AGENCY
190720501921 7-20 20:27 2200 SPRING PARK RD 1066 CANCEL
190720501942 7-20 20:26 W UNIVERSITY BLVD AND AUBURN RD 29 WIRE DOWN
190720501857 7-20 20:25 200 E STATE ST 9 THEFT
190720501940 7-20 20:24 1000 GOLFAIR BLVD 13 SUSPICIOUS PERSON
190720501935 7-20 20:22 5900 FIRESTONE RD 9 THEFT
190720501931 7-20 20:22 800 PRUDENTIAL DR 1066 CANCEL
190720501934 7-20 20:20 SOUTHSIDE BLVD AND W GATE PKWY 1050 TRAFFIC STOP
190720501926 7-20 20:17 S I95 EXPWY AND LEM TURNER RD 16 ROAD OBSTRUCTION
190720501905 7-20 20:17 2800 SOPHIA ST 20 PROWLER
190720501863 7-20 20:17 8700 KONA AVE 63 DISPUTE
190720501922 7-20 20:16 3200 HARTLEY RD 64 NOISE COMPLAINT
190720501880 7-20 20:14 11500 HOLTON LN 22 DOMESTIC
190720501892 7-20 20:14 SAN PABLO PKWY AND CROSSWATER BLVD 16 ROAD OBSTRUCTION
190720501918 7-20 20:14 3300 W 20TH ST 1066 CANCEL
190720501924 7-20 20:13 W 21ST ST AND BOULEVARD 38 TRAFFIC ASSIGNMENT
190720501915 7-20 20:13 S MISS MUFFET LN AND W MISS MUFFET LN 33 DISCHARGING OF FIREARM
190720501923 7-20 20:13 S I295 EXPWY AND LEM TURNER RD 16 ROAD OBSTRUCTION
190720501893 7-20 20:13 3700 BELFORT RD 8 MISSING PERSON
190720501914 7-20 20:11 10600 SQUIRES CT 2 22 DOMESTIC DISTURBANCE
190720501889 7-20 20:10 500 BUSCH DR 63 DISPUTE
190720501916 7-20 20:10 103RD ST AND E LA VENTURA DR 1050 TRAFFIC STOP
190720501909 7-20 20:07 WESTBROOK RD AND W BEAVER ST 1050 TRAFFIC STOP
190720501904 7-20 20:05 N MYRTLE AVE AND W BEAVER ST 91 TRAFFIC LIGHT/RR CROSSING MALFUNCTION
190720501903 7-20 20:04 9500 ARLINGTON EXPWY 63 DISPUTE
190720501902 7-20 20:04 10900 NEW KINGS RD 1050 TRAFFIC STOP
190720501897 7-20 20:04 ARBLE DR AND MILL CREEK RD 27 MENTALLY ILL PERSON
190720501900 7-20 20:04 5200 BOILARD DR 27 MENTALLY ILL PERSON
190720501899 7-20 20:03 N I95 EXPWY AND KINGS RD 16 ROAD OBSTRUCTION
190720501901 7-20 20:03 W 4TH ST AND PEARCE ST 1050 TRAFFIC STOP
190720501895 7-20 20:02 BEACH BLVD AND LUCENA LN 1050 TRAFFIC STOP
190720501894 7-20 20:02 103RD ST AND FIRESTONE RD 1050 TRAFFIC STOP
190720501885 7-20 20:01 MELSON AVE AND W 1ST ST 61 FIGHT
190720501891 7-20 20:01 SS/JTB 1050 TRAFFIC STOP
190720501888 7-20 20:00 N I95 EXPWY AND W EDGEWOOD AVE 4 53 TRAFFIC CRASH PERSON INJURED
190720501878 7-20 20:00 1500 S LANE AVE 22 DOMESTIC
190720501886 7-20 20:00 N I95 EXPWY AND LEM TURNER RD 4 53 TRAFFIC CRASH PERSON INJURED